Weslaco, TX

9:02 AM CST on February 06, 2016 (GMT -0600)
Weslaco

Weather History for KT65 - February, 2013

Change the Weather History Date:

Tuesday, February 19, 2013

  Actual Average (KMFE) Record (KMFE)
Temperature  
Mean Temperature 71 °F 65 °F  
Max Temperature 76 °F 76 °F 98 °F (1986)
Min Temperature 66 °F 55 °F 34 °F (1879)
Degree Days  
Heating Degree Days 0 3  
Month to date heating degree days 82  
Since 1 July heating degree days 509  
Cooling Degree Days 6 4  
Month to date cooling degree days 58  
Year to date cooling degree days 120  
Growing Degree Days 21 (Base 50)    
Moisture  
Dew Point 60 °F    
Average Humidity 72    
Maximum Humidity 84    
Minimum Humidity 55    
Precipitation  
Precipitation 0.00 in 0.03 in 0.91 in (1982)
Month to date precipitation 0.81  
Year to date precipitation 1.86  
Sea Level Pressure  
Sea Level Pressure 30.04 in    
Wind  
Wind Speed 13 mph (East)    
Max Wind Speed 17 mph    
Max Gust Speed 24 mph    
Visibility 10 miles    
Events      
T = Trace of Precipitation, MM = Missing Value Source: NWS Daily Summary

Daily Weather History Graph

Daily Weather History Graph

Search for Another Location

Airport or City:

Trip Planner

Search our weather history database for the weather conditions in past years. The results will help you decide how hot, cold, wet, or windy it might be!

Date:

Astronomy

Feb. 19, 2013 Rise Set
Actual Time 7:04 AM CST 6:27 PM CST
Civil Twilight 6:40 AM CST 6:51 PM CST
Nautical Twilight 6:13 AM CST 7:18 PM CST
Astronomical Twilight 5:46 AM CST 7:44 PM CST
Moon 1:17 PM CST (2/19) 2:20 AM CST (2/19)
Length of Visible Light 12h 10m
Length of Day
11h 23m
Waxing Gibbous, 67% of the Moon is Illuminated
Feb 19
Waxing Gibbous
Feb 25
Full
Mar 4
Last Quarter
Mar 11
New
Mar 19
First Quarter

Hourly Weather History & Observations

Time (CST) Temp. Dew Point Humidity Pressure Visibility Wind Dir Wind Speed Gust Speed Precip Events Conditions
2:15 PM - - N/A% - - North - - N/A   Unknown
2:35 PM 76.1 °F 58.8 °F 55% 30.06 in 10.0 mi ENE 16.1 mph 23.0 mph N/A   Unknown
3:15 PM 75.7 °F 59.0 °F 56% 30.05 in 10.0 mi East 17.3 mph 23.0 mph N/A   Mostly Cloudy
3:35 PM 75.4 °F 58.3 °F 55% 30.04 in 10.0 mi East 15.0 mph 23.0 mph N/A   Scattered Clouds
3:55 PM 73.9 °F 58.3 °F 58% 30.04 in 10.0 mi East 13.8 mph 23.0 mph N/A   Clear
4:15 PM 73.2 °F 58.3 °F 59% 30.03 in 10.0 mi East 15.0 mph 24.2 mph N/A   Scattered Clouds
4:35 PM 72.1 °F 58.1 °F 61% 30.03 in 10.0 mi East 12.7 mph 23.0 mph N/A   Scattered Clouds
4:55 PM 72.0 °F 58.3 °F 62% 30.03 in 10.0 mi East 15.0 mph 23.0 mph N/A   Scattered Clouds
5:15 PM 72.1 °F 58.1 °F 61% 30.02 in 10.0 mi East 15.0 mph 19.6 mph N/A   Scattered Clouds
6:35 PM 68.2 °F 58.5 °F 71% 30.01 in 10.0 mi East 13.8 mph 17.3 mph N/A   Clear
7:35 PM 67.1 °F 59.0 °F 75% 30.04 in 10.0 mi ESE 8.1 mph 17.3 mph N/A   Clear
7:55 PM 66.6 °F 59.0 °F 77% 30.05 in 10.0 mi East 9.2 mph - N/A   Scattered Clouds
8:15 PM 67.1 °F 59.5 °F 77% 30.05 in 10.0 mi ESE 10.4 mph - N/A   Overcast
8:35 PM 67.3 °F 59.9 °F 77% 30.05 in 10.0 mi ESE 10.4 mph - N/A   Overcast
8:55 PM 67.1 °F 60.1 °F 78% 30.05 in 10.0 mi East 9.2 mph - N/A   Overcast
9:15 PM 67.1 °F 60.4 °F 79% 30.05 in 10.0 mi East 9.2 mph 16.1 mph N/A   Overcast
9:35 PM 66.9 °F 60.6 °F 80% 30.06 in 10.0 mi East 9.2 mph - N/A   Overcast
9:55 PM 66.6 °F 60.8 °F 82% 30.06 in 10.0 mi East 9.2 mph - N/A   Overcast
10:15 PM 67.1 °F 60.8 °F 80% 30.05 in 10.0 mi ESE 8.1 mph - N/A   Overcast
10:35 PM 67.1 °F 61.0 °F 81% 30.03 in 10.0 mi ESE 12.7 mph 17.3 mph N/A   Overcast
10:55 PM 67.3 °F 61.3 °F 81% 30.03 in 10.0 mi ESE 11.5 mph 17.3 mph N/A   Overcast
11:15 PM 67.1 °F 61.5 °F 82% 30.02 in 10.0 mi ESE 10.4 mph 18.4 mph N/A   Mostly Cloudy
11:35 PM 66.7 °F 61.7 °F 84% 30.00 in 10.0 mi ESE 11.5 mph 18.4 mph N/A   Mostly Cloudy
11:55 PM 66.6 °F 61.7 °F 84% 30.00 in 10.0 mi ESE 11.5 mph - N/A   Scattered Clouds